Location: Peterborough
(44.3091°N, 78.3197°W)
Time: 20:57:43
(UTC-04:00)

Courier 1B Rocket - Pass Details

Date: 27 March 2023
Orbit: 920 x 1202 km, 28.2° (Epoch: 04 June)

Event Time Altitude Azimuth Distance (km) Brightness Sun altitude
Rises 22:47:00 0° 245° (WSW) 3,798 8.3 -32.0°
Reaches altitude 10° 22:50:38 10° 228° (SW) 2,789 7.4 -32.4°
Enters shadow 22:51:08 11° 225° (SW) 2,673 7.3 -32.5°
